GW2646 Weather Reports


time (UTC)temp
C
wind
direction
speed
KPH
gust
KPH
rain 1hr
cm
rain 24hr
cm
rain mn
cm
humidity
%
barometer
mb
20260507201047 13 0 0.0 3.2 0.00 0.08 0.08 80 1019.7
20260507200549 13 0 0.0 3.2 0.00 0.08 0.08 79 1019.7
20260507200056 13 0 0.0 4.8 0.00 0.08 0.08 80 1019.7
20260507195550 12 0 0.0 4.8 0.00 0.08 0.08 81 1019.7
20260507195049 13 205 0.0 4.8 0.00 0.08 0.08 80 1019.8
20260507194559 13 0 0.0 4.8 0.00 0.08 0.08 80 1019.7
20260507194045 12 0 0.0 3.2 0.00 0.08 0.08 81 1019.7
20260507193549 12 0 0.0 4.8 0.00 0.08 0.08 81 1019.8
20260507193052 12 0 0.0 4.8 0.00 0.08 0.08 81 1019.7
20260507192547 12 190 0.0 6.4 0.00 0.08 0.08 82 1019.7
20260507192045 12 0 0.0 6.4 0.00 0.08 0.08 82 1019.7
20260507191549 12 190 0.0 4.8 0.00 0.08 0.08 83 1019.8
20260507191046 12 0 0.0 4.8 0.00 0.08 0.08 83 1019.8
20260507190546 12 0 0.0 8.0 0.00 0.08 0.08 83 1019.8
20260507190058 12 186 1.6 8.0 0.00 0.08 0.08 83 1019.8
20260507185545 12 0 0.0 8.0 0.00 0.08 0.08 85 1019.9
20260507185045 12 0 0.0 8.0 0.00 0.08 0.08 87 1019.9
20260507184551 11 0 0.0 8.0 0.00 0.08 0.08 86 1019.9
20260507184047 11 0 1.6 8.0 0.00 0.08 0.08 87 1020.0
20260507183550 11 0 0.0 4.8 0.00 0.08 0.08 89 1020.1
20260507183117 11 0 0.0 4.8 0.00 0.08 0.08 88 1020.0
20260507182547 11 88 0.0 4.8 0.00 0.08 0.08 88 1020.1
20260507182045 11 88 0.0 3.2 0.00 0.08 0.08 89 1020.1
20260507181559 11 0 0.0 0.0 0.00 0.08 0.08 91 1020.1
20260507181046 11 0 0.0 3.2 0.00 0.08 0.08 90 1020.1
20260507180546 11 0 0.0 4.8 0.00 0.08 0.08 90 1020.0
20260507180059 11 0 0.0 4.8 0.00 0.08 0.08 91 1020.1
20260507175544 11 0 0.0 0.0 0.00 0.08 0.08 92 1020.1
20260507175046 11 0 0.0 1.6 0.00 0.08 0.08 92 1020.2
20260507174602 11 0 0.0 1.6 0.00 0.08 0.08 92 1020.2
20260507174048 10 0 0.0 4.8 0.00 0.08 0.08 92 1020.2
20260507173547 10 0 0.0 4.8 0.00 0.08 0.08 92 1020.2
20260507173110 10 52 1.6 4.8 0.00 0.08 0.08 92 1020.1
20260507172544 10 0 0.0 0.0 0.00 0.08 0.08 92 1020.2
20260507172046 10 0 0.0 0.0 0.00 0.08 0.08 92 1020.2
20260507171600 10 0 0.0 4.8 0.00 0.08 0.08 92 1020.1
20260507171047 10 0 0.0 4.8 0.00 0.08 0.08 91 1020.2
20260507170548 10 0 0.0 3.2 0.00 0.08 0.08 92 1020.1
20260507170108 10 0 0.0 3.2 0.00 0.08 0.08 92 1020.2
20260507170101 10 0 0.0 4.8 0.00 0.08 0.08 92 1020.2